Voltar ao catálogo

SJ-11-03

AtivoCiênciaSSO
NORAD 37730·PAYLOAD·🇨🇳 China

Lançado Jul 6, 2011 de Jiuquan Satellite Launch Center

Loading…

Próximas Passagens (próximas 24 horas)

TLE

AtualizadoSource: Space-Track

Época: Sep 14, 2026, 14:12 UTC

1 37730U 11030A   26257.59222244  .00000103  00000-0  28052-4 0  9992
2 37730  97.9445 218.4603 0009483 106.3828  25.9196 14.64409171810194

Acompanhe SJ-11-03 em tempo real com AllMySat

Download on the App Store